| time (UTC) | temp F | wind direction | speed MPH | gust MPH | rain 1hr in | rain 24hr in | rain mn in | humidity % | barometer mb |
| 20260505040016 | 66 | 0.0 | 1.0 | 0.00 | 0.00 | 0.00 | 65 | 1011.5 | |
| 20260505033015 | 69 | 0.0 | 3.0 | 0.00 | 0.00 | 0.00 | 61 | 1011.0 | |
| 20260505030015 | 72 | 0.0 | 1.0 | 0.00 | 0.00 | 0.00 | 58 | 1010.5 | |
| 20260505023015 | 74 | 0.0 | 2.0 | 0.00 | 0.00 | 0.00 | 54 | 1010.3 | |
| 20260505020018 | 75 | 0.0 | 2.0 | 0.00 | 0.00 | 0.00 | 52 | 1010.3 | |
| 20260505013017 | 77 | 0.0 | 3.0 | 0.00 | 0.00 | 0.00 | 47 | 1010.2 | |
| 20260505010017 | 78 | 270 | 1.0 | 4.0 | 0.00 | 0.00 | 0.00 | 44 | 1010.4 |
| 20260505003017 | 78 | 0.0 | 3.0 | 0.00 | 0.00 | 0.00 | 43 | 1010.2 | |
| 20260505000017 | 79 | 0.0 | 3.0 | 0.00 | 0.00 | 0.00 | 42 | 1010.4 | |
| 20260504233037 | 80 | 0.0 | 2.0 | 0.00 | 0.00 | 0.00 | 43 | 1010.4 | |
| 20260504230017 | 79 | 270 | 1.0 | 3.0 | 0.00 | 0.00 | 0.00 | 42 | 1010.6 |
| 20260504223038 | 79 | 270 | 1.0 | 3.0 | 0.00 | 0.00 | 0.00 | 41 | 1010.9 |
| 20260504220017 | 78 | 270 | 1.0 | 4.0 | 0.00 | 0.00 | 0.00 | 40 | 1011.1 |
| 20260504213018 | 78 | 315 | 1.0 | 4.0 | 0.00 | 0.00 | 0.00 | 40 | 1011.3 |
| 20260504210017 | 78 | 270 | 1.0 | 4.0 | 0.00 | 0.00 | 0.00 | 43 | 1011.4 |
| 20260504203037 | 78 | 270 | 1.0 | 4.0 | 0.00 | 0.00 | 0.00 | 43 | 1011.5 |
| 20260504200057 | 77 | 0.0 | 2.0 | 0.00 | 0.00 | 0.00 | 43 | 1011.8 | |
| 20260504193017 | 75 | 270 | 1.0 | 3.0 | 0.00 | 0.00 | 0.00 | 48 | 1011.9 |
| 20260504190017 | 73 | 0.0 | 4.0 | 0.00 | 0.00 | 0.00 | 48 | 1012.1 | |
| 20260504183018 | 73 | 0.0 | 3.0 | 0.00 | 0.00 | 0.00 | 52 | 1012.4 | |
| 20260504180016 | 71 | 0.0 | 3.0 | 0.00 | 0.00 | 0.00 | 54 | 1012.4 | |
| 20260504173017 | 68 | 0.0 | 3.0 | 0.00 | 0.00 | 0.00 | 60 | 1012.4 |